CW4535 Weather Reports


time (UTC)temp
C
wind
direction
speed
KPH
gust
KPH
rain 1hr
cm
rain 24hr
cm
rain mn
cm
humidity
%
barometer
mb
20260510120003 16 0 0.0 0.0 0.00 0.00 0.00 88 1013.9
20260510115003 16 0 0.0 0.0 0.00 0.00 0.00 87 1013.7
20260510114220 16 0 0.0 0.0 0.00 0.00 0.00 86 1013.6
20260510113003 16 0 0.0 0.0 0.00 0.00 0.00 86 1013.3
20260510112003 16 0 0.0 0.0 0.00 0.00 0.00 85 1013.2
20260510111003 16 0 0.0 0.0 0.00 0.00 0.00 85 1013.0
20260510110003 16 0 0.0 0.0 0.00 0.00 0.00 84 1012.9
20260510105003 16 0 0.0 0.0 0.00 0.00 0.00 83 1012.6
20260510104003 17 0 0.0 0.0 0.00 0.00 0.00 83 1012.3
20260510103003 17 0 0.0 0.0 0.00 0.00 0.00 83 1012.6
20260510102003 17 0 0.0 0.0 0.00 0.00 0.00 82 1012.5
20260510101003 17 0 0.0 0.0 0.00 0.00 0.00 82 1012.3
20260510100003 17 0 0.0 0.0 0.00 0.00 0.00 81 1012.2
20260510095003 17 0 0.0 0.0 0.00 0.00 0.00 80 1012.0
20260510094003 17 0 0.0 0.0 0.00 0.00 0.00 80 1012.1
20260510093003 17 0 0.0 0.0 0.00 0.00 0.00 79 1012.3
20260510092003 18 0 0.0 0.0 0.00 0.00 0.00 78 1012.1
20260510091003 18 0 0.0 0.0 0.00 0.00 0.00 77 1011.6
20260510090003 18 0 0.0 0.0 0.00 0.00 0.00 76 1011.4
20260510085003 18 0 0.0 0.0 0.00 0.00 0.00 76 1011.2
20260510084003 18 0 0.0 0.0 0.00 0.00 0.00 74 1011.1
20260510083218 19 0 0.0 0.0 0.00 0.00 0.00 73 1010.9
20260510082003 19 0 0.0 0.0 0.00 0.00 0.00 72 1010.3
20260510081003 20 57 0.0 1.6 0.00 0.00 0.00 71 1010.1
20260510080004 20 60 0.0 6.4 0.00 0.00 0.00 71 1010.2
20260510075003 20 124 0.0 3.2 0.00 0.00 0.00 70 1010.2
20260510074003 20 151 1.6 16.1 0.00 0.00 0.00 70 1009.4
20260510073003 20 143 3.2 17.7 0.00 0.00 0.00 70 1008.4
20260510072003 20 154 3.2 16.1 0.00 0.00 0.00 70 1009.6
20260510071003 19 180 3.2 9.7 0.00 0.00 0.00 71 1010.7
20260510070004 19 175 1.6 14.5 0.00 0.00 0.00 74 1010.6
20260510065003 19 154 1.6 11.3 0.00 0.00 0.00 78 1010.7
20260510064003 19 138 0.0 8.0 0.00 0.00 0.00 79 1010.6
20260510063003 19 115 0.0 4.8 0.00 0.00 0.00 79 1011.9
20260510062003 19 0 0.0 0.0 0.00 0.00 0.00 79 1012.2
20260510061003 19 111 0.0 1.6 0.00 0.00 0.00 78 1012.4
20260510060004 19 0 0.0 0.0 0.00 0.00 0.00 77 1012.4
20260510055003 20 0 0.0 0.0 0.00 0.00 0.00 77 1012.7
20260510054003 20 0 0.0 0.0 0.00 0.00 0.00 76 1012.5
20260510053003 20 0 0.0 0.0 0.00 0.00 0.00 75 1012.9
20260510052003 20 0 0.0 0.0 0.00 0.00 0.00 75 1012.8
20260510051003 20 111 0.0 1.6 0.00 0.00 0.00 75 1012.9
20260510050004 20 111 0.0 3.2 0.00 0.00 0.00 76 1012.8
20260510045003 19 113 0.0 3.2 0.00 0.00 0.00 76 1012.5
20260510044003 19 0 0.0 0.0 0.00 0.00 0.00 77 1012.1
20260510043003 19 0 0.0 0.0 0.00 0.00 0.00 76 1011.7
20260510042003 19 0 0.0 0.0 0.00 0.00 0.00 77 1011.3
20260510041003 19 0 0.0 0.0 0.00 0.00 0.00 76 1011.0
20260510040004 20 0 0.0 0.0 0.00 0.00 0.00 75 1010.8
20260510035003 20 0 0.0 0.0 0.00 0.00 0.00 74 1010.7
20260510034003 20 0 0.0 0.0 0.00 0.00 0.00 73 1010.7
20260510033003 20 0 0.0 0.0 0.00 0.00 0.00 72 1010.8
20260510032217 20 0 0.0 0.0 0.00 0.00 0.00 72 1010.9
20260510031003 20 0 0.0 0.0 0.00 0.00 0.00 71 1010.9
20260510030003 20 0 0.0 0.0 0.00 0.00 0.00 70 1010.8
20260510025003 20 0 0.0 0.0 0.00 0.00 0.00 70 1010.7
20260510024003 20 0 0.0 0.0 0.00 0.00 0.00 69 1010.4
20260510023003 20 0 0.0 0.0 0.00 0.00 0.00 67 1009.9
20260510022003 20 0 0.0 0.0 0.00 0.00 0.00 65 1009.4
20260510021219 21 0 0.0 0.0 0.00 0.00 0.00 65 1009.1
20260510020220 21 0 0.0 0.0 0.00 0.00 0.00 63 1009.0
20260510015003 22 0 0.0 0.0 0.00 0.00 0.00 61 1008.7
20260510014003 22 0 0.0 0.0 0.00 0.00 0.00 59 1008.5
20260510013003 23 0 0.0 0.0 0.00 0.00 0.00 57 1008.3
20260510012003 23 0 0.0 0.0 0.00 0.00 0.00 55 1008.2
20260510011003 24 0 0.0 0.0 0.00 0.00 0.00 54 1008.1
20260510010003 25 115 0.0 3.2 0.00 0.03 0.00 52 1008.0
20260510005222 25 113 0.0 3.2 0.00 0.03 0.00 51 1007.9
20260510004217 26 111 0.0 11.3 0.00 0.03 0.00 49 1007.8
20260510003004 26 0 0.0 0.0 0.00 0.05 0.00 47 1007.7
20260510002219 26 139 0.0 3.2 0.00 0.10 0.00 44 1007.7
20260510001220 27 118 0.0 4.8 0.00 0.18 0.00 42 1007.7
20260510000221 27 80 3.2 11.3 0.00 0.20 0.00 41 1007.8
20260509235003 28 71 1.6 16.1 0.00 0.48 0.00 38 1007.8
20260509234003 28 87 3.2 12.9 0.00 0.51 0.00 36 1007.9
20260509233004 28 97 1.6 11.3 0.00 1.04 0.00 35 1008.0
20260509232003 28 98 3.2 11.3 0.00 1.30 0.00 34 1007.9
20260509231003 28 89 1.6 16.1 0.00 1.30 0.00 34 1008.0
20260509230003 28 77 3.2 9.7 0.00 1.30 0.00 39 1008.1
20260509225003 29 66 3.2 16.1 0.00 1.30 0.00 34 1008.2
20260509224004 29 74 1.6 9.7 0.00 1.30 0.00 34 1008.2
20260509223003 29 68 3.2 11.3 0.00 1.30 0.00 34 1008.2
20260509222004 30 82 1.6 8.0 0.00 1.30 0.00 34 1008.3
20260509221003 30 79 1.6 11.3 0.00 1.30 0.00 34 1008.3
20260509220004 30 75 1.6 11.3 0.00 1.30 0.00 34 1008.4
20260509215003 30 75 3.2 12.9 0.00 1.30 0.00 35 1008.6
20260509214003 30 76 1.6 8.0 0.00 1.30 0.00 35 1008.5
20260509213003 30 80 3.2 14.5 0.00 1.30 0.00 32 1008.5
20260509212003 30 94 1.6 8.0 0.00 1.30 0.00 34 1008.6
20260509211003 30 75 1.6 9.7 0.00 1.30 0.00 35 1008.8
20260509210003 30 73 0.0 8.0 0.00 1.30 0.00 34 1009.0
20260509205003 30 73 0.0 1.6 0.00 1.30 0.00 36 1009.1
20260509204220 30 63 0.0 3.2 0.00 1.30 0.00 36 1009.2
20260509203003 30 83 1.6 8.0 0.00 1.30 0.00 33 1009.2
20260509202003 30 98 1.6 8.0 0.00 1.30 0.00 34 1009.3
20260509201003 30 99 1.6 6.4 0.00 1.30 0.00 36 1009.4
20260509200003 30 94 1.6 6.4 0.00 1.30 0.00 33 1009.5
20260509195003 30 115 0.0 3.2 0.00 1.30 0.00 35 1009.6
20260509194220 30 64 0.0 6.4 0.00 1.30 0.00 39 1009.7
20260509193003 30 69 1.6 9.7 0.00 1.30 0.00 33 1009.8
20260509192003 29 0 0.0 0.0 0.00 1.30 0.00 36 1009.8
20260509191003 30 0 0.0 0.0 0.00 1.30 0.00 34 1009.8
20260509190003 29 0 0.0 0.0 0.00 1.30 0.00 32 1009.8
20260509185003 29 0 0.0 0.0 0.00 1.30 0.00 32 1009.9
20260509184221 29 0 0.0 0.0 0.00 1.30 0.00 31 1009.9
20260509183003 28 117 0.0 1.6 0.00 1.30 0.00 36 1010.2
20260509182003 28 0 0.0 0.0 0.00 1.30 0.00 41 1010.3
20260509181003 28 0 0.0 0.0 0.00 1.30 0.00 45 1010.4
20260509180003 28 0 0.0 0.0 0.00 1.30 0.00 48 1010.5
20260509175003 28 0 0.0 0.0 0.00 1.30 0.00 45 1010.7
20260509174003 27 0 0.0 0.0 0.00 1.30 0.00 47 1010.8
20260509173003 27 0 0.0 0.0 0.00 1.30 0.00 52 1010.8
20260509172003 27 0 0.0 0.0 0.00 1.30 0.00 54 1010.9
20260509171003 26 0 0.0 0.0 0.00 1.30 0.00 55 1010.9
20260509170003 26 0 0.0 0.0 0.00 1.30 0.00 63 1011.0
20260509165221 26 0 0.0 0.0 0.00 1.30 0.00 63 1011.0
20260509164003 26 0 0.0 0.0 0.00 1.30 0.00 66 1011.2
20260509163218 25 0 0.0 0.0 0.00 1.30 0.00 66 1011.2
20260509162003 25 0 0.0 0.0 0.00 1.30 0.00 70 1011.2
20260509161220 25 0 0.0 0.0 0.00 1.30 0.00 71 1011.1
20260509160004 24 0 0.0 0.0 0.00 1.30 0.00 71 1011.0
20260509155217 23 0 0.0 0.0 0.00 1.30 0.00 73 1010.9
20260509154218 23 0 0.0 0.0 0.00 1.30 0.00 73 1010.8
20260509153003 23 0 0.0 0.0 0.00 1.30 0.00 76 1010.9
20260509152003 22 0 0.0 0.0 0.00 1.30 0.00 79 1011.0
20260509151003 22 0 0.0 0.0 0.00 1.30 0.00 85 1011.0
20260509150217 21 0 0.0 0.0 0.00 1.30 0.00 89 1011.0
20260509145003 20 0 0.0 0.0 0.00 1.30 0.00 93 1011.2
20260509144219 20 0 0.0 0.0 0.00 1.30 0.00 95 1011.1
20260509143003 18 0 0.0 0.0 0.00 1.30 0.00 96 1011.1
20260509142003 18 0 0.0 0.0 0.00 1.30 0.00 96 1011.0
20260509141003 18 0 0.0 0.0 0.00 1.30 0.00 96 1011.0
20260509140003 17 0 0.0 0.0 0.00 1.30 0.00 96 1010.9
20260509135218 17 0 0.0 0.0 0.00 1.30 0.00 96 1010.8
20260509134003 16 0 0.0 0.0 0.00 1.30 0.00 96 1010.8
20260509133220 16 0 0.0 0.0 0.00 1.30 0.00 96 1010.7
20260509132003 15 0 0.0 0.0 0.00 1.30 0.00 96 1010.4
20260509131003 15 0 0.0 0.0 0.00 1.30 0.00 96 1010.4
20260509130003 14 0 0.0 0.0 0.00 1.30 0.00 96 1010.4
20260509125003 14 0 0.0 0.0 0.00 1.30 0.00 96 1010.3
20260509124003 13 0 0.0 0.0 0.00 1.30 0.00 96 1010.2
20260509123003 13 0 0.0 0.0 0.00 1.30 0.00 95 1010.2
20260509122003 12 0 0.0 0.0 0.00 1.30 0.00 95 1010.1
20260509121218 12 0 0.0 0.0 0.00 1.30 0.00 95 1010.0